H1 CPF 2 NER 2024 5 7 9 128 01 glonass138 H2 1805301 9138 43508 2024 5 7 0 0 0 2024 5 10 23 45 0 900 1 1 0 0 0 1 H9 10 0 60437 0.00000 0 -13524441.411 -1758177.642 -21543342.901 10 0 60437 900.00000 0 -15155451.216 -3756343.058 -20160139.553 10 0 60437 1800.00000 0 -16801401.962 -5482175.968 -18385003.957 10 0 60437 2700.00000 0 -18400032.234 -6911657.725 -16252525.988 10 0 60437 3600.00000 0 -19887499.540 -8033565.328 -13804227.280 10 0 60437 4500.00000 0 -21201042.183 -8849670.864 -11087747.923 10 0 60437 5400.00000 0 -22281613.532 -9374395.324 -8155915.075 10 0 60437 6300.00000 0 -23076378.070 -9633933.318 -5065711.893 10 0 60437 7200.00000 0 -23540964.450 -9664887.390 -1877167.217 10 0 60437 8100.00000 0 -23641381.074 -9512471.143 1347812.112 10 0 60437 9000.00000 0 -23355513.982 -9228358.407 4546643.323 10 0 60437 9900.00000 0 -22674144.443 -8868270.293 7657280.585 10 0 60437 10800.00000 0 -21601443.858 -8489402.783 10619415.092 10 0 60437 11700.00000 0 -20154925.491 -8147803.852 13375639.217 10 0 60437 12600.00000 0 -18364855.204 -7895810.932 15872552.472 10 0 60437 13500.00000 0 -16273145.816 -7779656.659 18061788.424 10 0 60437 14400.00000 0 -13931781.008 -7837343.542 19900943.457 10 0 60437 15300.00000 0 -11400833.993 -8096876.706 21354390.217 10 0 60437 16200.00000 0 -8746162.645 -8574928.866 22393960.985 10 0 60437 17100.00000 0 -6036875.882 -9275993.594 22999488.576 10 0 60437 18000.00000 0 -3342675.320 -10192062.745 23159194.994 10 0 60437 18900.00000 0 -731181.177 -11302842.211 22869920.728 10 0 60437 19800.00000 0 1734648.060 -12576497.970 22137190.348 10 0 60437 20700.00000 0 3998896.384 -13970902.445 20975112.818 10 0 60437 21600.00000 0 6014773.822 -15435330.461 19406117.827 10 0 60437 22500.00000 0 7746317.133 -16912535.258 17460532.289 10 0 60437 23400.00000 0 9169637.599 -18341118.973 15176004.076 10 0 60437 24300.00000 0 10273664.357 -19658099.330 12596782.954 10 0 60437 25200.00000 0 11060352.529 -20801565.599 9772871.494 10 0 60437 26100.00000 0 11544347.589 -21713312.563 6759061.475 10 0 60437 27000.00000 0 11752120.173 -22341341.547 3613873.836 10 0 60437 27900.00000 0 11720607.908 -22642122.642 398422.414 10 0 60437 28800.00000 0 11495421.742 -22582521.799 -2824776.341 10 0 60437 29700.00000 0 11128692.953 -22141310.291 -5993024.116 10 0 60437 30600.00000 0 10676652.484 -21310191.494 -9044667.503 10 0 60437 31500.00000 0 10197045.825 -20094300.230 -11920305.973 10 0 60437 32400.00000 0 9746493.873 -18512152.342 -14563956.570 10 0 60437 33300.00000 0 9377912.537 -16595045.427 -16924151.729 10 0 60437 34200.00000 0 9138101.407 -14385935.103 -18954947.986 10 0 60437 35100.00000 0 9065604.500 -11937833.320 -20616825.390 10 0 60437 36000.00000 0 9188934.430 -9311795.511 -21877459.752 10 0 60437 36900.00000 0 9525235.719 -6574580.645 -22712352.597 10 0 60437 37800.00000 0 10079444.190 -3796081.884 -23105306.674 10 0 60437 38700.00000 0 10843978.237 -1046635.006 -23048738.074 10 0 60437 39600.00000 0 11798975.124 1605683.322 -22543819.265 10 0 60437 40500.00000 0 12913062.388 4097655.168 -21600450.668 10 0 60437 41400.00000 0 14144631.812 6373311.134 -20237061.791 10 0 60437 42300.00000 0 15443562.191 8386011.565 -18480246.122 10 0 60437 43200.00000 0 16753318.219 10100133.539 -16364237.265 10 0 60437 44100.00000 0 18013337.011 11492294.664 -13930236.779 10 0 60437 45000.00000 0 19161601.636 12552064.156 -11225607.111 10 0 60437 45900.00000 0 20137293.188 13282133.323 -8302945.606 10 0 60437 46800.00000 0 20883409.696 13697940.204 -5219057.893 10 0 60437 47700.00000 0 21349241.545 13826766.076 -2033850.986 10 0 60437 48600.00000 0 21492599.273 13706343.616 1190832.081 10 0 60437 49500.00000 0 21281700.069 13383036.946 4392413.159 10 0 60437 50400.00000 0 20696633.760 12909671.557 7508791.857 10 0 60437 51300.00000 0 19730346.809 12343106.599 10479546.807 10 0 60437 52200.00000 0 18389103.112 11741652.517 13247102.118 10 0 60437 53100.00000 0 16692402.263 11162443.160 15757836.719 10 0 60437 54000.00000 0 14672358.539 10658873.069 17963115.660 10 0 60437 54900.00000 0 12372566.203 10278207.521 19820224.123 10 0 60437 55800.00000 0 9846497.812 10059465.514 21293186.931 10 0 60437 56700.00000 0 7155501.419 10031664.187 22353458.607 10 0 60437 57600.00000 0 4366478.774 10212498.095 22980471.511 10 0 60437 58500.00000 0 1549339.702 10607508.614 23162032.105 10 0 60437 59400.00000 0 -1225663.187 11209778.493 22894558.155 10 0 60437 60300.00000 0 -3890610.399 12000164.845 22183152.350 10 0 60437 61200.00000 0 -6382492.506 12948061.636 21041510.647 10 0 60437 62100.00000 0 -8645582.504 14012660.799 19491666.510 10 0 60437 63000.00000 0 -10633506.160 15144660.337 17563575.035 10 0 60437 63900.00000 0 -12310925.008 16288348.985 15294543.912 10 0 60437 64800.00000 0 -13654762.464 17383981.026 12728521.027 10 0 60437 65700.00000 0 -14654922.190 18370342.301 9915251.335 10 0 60437 66600.00000 0 -15314468.775 19187399.896 6909318.413 10 0 60437 67500.00000 0 -15649263.201 19778923.936 3769088.599 10 0 60437 68400.00000 0 -15687068.466 20094970.520 555577.865 10 0 60437 69300.00000 0 -15466163.126 20094120.140 -2668736.451 10 0 60437 70200.00000 0 -15033521.499 19745375.924 -5841135.545 10 0 60437 71100.00000 0 -14442637.842 19029640.077 -8899886.260 10 0 60437 72000.00000 0 -13751087.137 17940704.684 -11785450.586 10 0 60437 72900.00000 0 -13017926.463 16485713.507 -14441653.016 10 0 60437 73800.00000 0 -12301047.804 14685073.942 -16816782.124 10 0 60437 74700.00000 0 -11654595.220 12571821.604 -18864604.061 10 0 60437 75600.00000 0 -11126556.465 10190463.297 -20545267.653 10 0 60437 76500.00000 0 -10756631.573 7595346.176 -21826083.147 10 0 60437 77400.00000 0 -10574468.993 4848620.950 -22682159.313 10 0 60437 78300.00000 0 -10598344.039 2017883.941 -23096886.633 10 0 60437 79200.00000 0 -10834335.494 -826403.777 -23062257.463 10 0 60437 80100.00000 0 -11276034.987 -3613612.730 -22579017.318 10 0 60437 81000.00000 0 -11904801.136 -6275644.842 -21656644.777 10 0 60437 81900.00000 0 -12690547.342 -8749524.697 -20313160.818 10 0 60437 82800.00000 0 -13593029.643 -10979774.959 -18574771.698 10 0 60437 83700.00000 0 -14563579.884 -12920477.891 -16475352.652 10 0 60437 84600.00000 0 -15547210.748 -14536938.161 -14055782.754 10 0 60437 85500.00000 0 -16485003.513 -15806878.918 -11363144.161 10 0 60438 0.00000 0 -17316677.471 -16721122.645 -8449801.884 10 0 60438 900.00000 0 -17983232.830 -17283730.521 -5372380.645 10 0 60438 1800.00000 0 -18429554.345 -17511595.078 -2190663.030 10 0 60438 2700.00000 0 -18606867.297 -17433506.685 1033574.546 10 0 60438 3600.00000 0 -18474941.085 -17088733.477 4237761.295 10 0 60438 4500.00000 0 -18003948.063 -16525176.464 7359744.910 10 0 60438 5400.00000 0 -17175899.326 -15797178.565 10338993.973 10 0 60438 6300.00000 0 -15985597.028 -14963080.596 13117766.684 10 0 60438 7200.00000 0 -14441063.182 -14082627.591 15642223.528 10 0 60438 8100.00000 0 -12563426.682 -13214334.650 17863462.890 10 0 60438 9000.00000 0 -10386272.809 -12412922.878 19738460.283 10 0 60438 9900.00000 0 -7954481.725 -11726932.710 21230893.848 10 0 60438 10800.00000 0 -5322603.390 -11196614.235 22311841.085 10 0 60438 11700.00000 0 -2552835.317 -10852182.424 22960334.207 10 0 60438 12600.00000 0 287314.158 -10712509.930 23163764.052 10 0 60438 13500.00000 0 3127581.688 -10784311.965 22918125.202 10 0 60438 14400.00000 0 5897619.367 -11061857.405 22228097.676 10 0 60438 15300.00000 0 8529670.594 -11527218.554 21106963.355 10 0 60438 16200.00000 0 10961141.755 -12151049.712 19576358.152 10 0 60438 17100.00000 0 13136964.127 -12893862.743 17665863.800 10 0 60438 18000.00000 0 15011648.685 -13707747.064 15412446.032 10 0 60438 18900.00000 0 16550948.852 -14538462.733 12859748.848 10 0 60438 19800.00000 0 17733062.153 -15327819.390 10057257.357 10 0 60438 20700.00000 0 18549320.597 -16016241.377 7059344.474 10 0 60438 21600.00000 0 19004340.814 -16545411.013 3924219.278 10 0 60438 22500.00000 0 19115627.549 -16860878.193 712797.085 10 0 60438 23400.00000 0 18912647.087 -16914525.367 -2512486.732 10 0 60438 24300.00000 0 18435409.754 -16666782.627 -5688895.703 10 0 60438 25200.00000 0 17732621.502 -16088497.890 -8754619.640 10 0 60438 26100.00000 0 16859483.088 -15162381.580 -11649985.591 10 0 60438 27000.00000 0 15875230.467 -13883963.139 -14318627.818 10 0 60438 27900.00000 0 14840521.091 -12262017.413 -16708593.119 10 0 60438 28800.00000 0 13814777.395 -10318441.512 -18773359.071 10 0 60438 29700.00000 0 12853600.450 -8087586.071 -20472744.807 10 0 60438 30600.00000 0 12006363.630 -5615067.979 -21773696.220 10 0 60438 31500.00000 0 11314088.296 -2956113.607 -22650930.205 10 0 60438 32400.00000 0 10807691.273 -173501.304 -23087425.489 10 0 60438 33300.00000 0 10506677.924 2664811.312 -23074750.832 10 0 60438 34200.00000 0 10418335.558 5488276.532 -22613224.559 10 0 60438 35100.00000 0 10537460.640 8226454.615 -21711902.788 10 0 60438 36000.00000 0 10846630.576 10811708.725 -20388397.005 10 0 60438 36900.00000 0 11317007.877 13181784.942 -18668524.917 10 0 60438 37800.00000 0 11909641.983 15282170.565 -16585801.736 10 0 60438 38700.00000 0 12577213.091 17068133.285 -14180782.054 10 0 60438 39600.00000 0 13266143.718 18506357.212 -11500265.423 10 0 60438 40500.00000 0 13918988.279 19576108.728 -8596381.359 10 0 60438 41400.00000 0 14476999.292 20269884.918 -5525571.830 10 0 60438 42300.00000 0 14882761.481 20593518.973 -2347491.388 10 0 60438 43200.00000 0 15082782.256 20565739.827 876153.388 10 0 60438 44100.00000 0 15029929.077 20217206.102 4082802.301 10 0 60438 45000.00000 0 14685610.704 19589056.425 7210254.277 10 0 60438 45900.00000 0 14021610.380 18731038.275 10197870.809 10 0 60438 46800.00000 0 13021493.598 17699294.979 12987746.889 10 0 60438 47700.00000 0 11681531.149 16553904.457 15525826.955 10 0 60438 48600.00000 0 10011098.398 15356273.384 17762944.800 10 0 60438 49500.00000 0 8032533.543 14166496.034 19655767.991 10 0 60438 50400.00000 0 5780460.099 13040788.228 21167629.355 10 0 60438 51300.00000 0 3300600.885 12029103.314 22269230.376 10 0 60438 52200.00000 0 648131.673 11173029.301 22939203.737 10 0 60438 53100.00000 0 -2114358.463 10504054.437 23164524.849 10 0 60438 54000.00000 0 -4919216.969 10042273.184 22940764.856 10 0 60438 54900.00000 0 -7696292.001 9795586.315 22272180.369 10 0 60438 55800.00000 0 -10375606.176 9759428.440 21171637.949 10 0 60438 56700.00000 0 -12890030.477 9917034.523 19660374.212 10 0 60438 57600.00000 0 -15177848.558 10240234.614 17767595.299 10 0 60438 58500.00000 0 -17185105.816 10690744.024 15529922.352 10 0 60438 59400.00000 0 -18867646.094 11221895.440 12990692.532 10 0 60438 60300.00000 0 -20192751.394 11780740.739 10199127.936 10 0 60438 61200.00000 0 -21140316.097 12310434.422 7209387.554 10 0 60438 62100.00000 0 -21703506.361 12752798.318 4079519.956 10 0 60438 63000.00000 0 -21888876.743 13050959.067 870336.635 10 0 60438 63900.00000 0 -21715938.826 13151946.315 -2355772.018 10 0 60438 64800.00000 0 -21216199.854 13009140.776 -5536054.711 10 0 60438 65700.00000 0 -20431711.834 12584467.300 -8608626.868 10 0 60438 66600.00000 0 -19413192.522 11850238.642 -11513683.008 10 0 60438 67500.00000 0 -18217798.010 10790570.356 -14194669.318 10 0 60438 68400.00000 0 -16906641.488 9402305.338 -16599392.664 10 0 60438 69300.00000 0 -15542163.621 7695407.465 -18681043.542 10 0 60438 70200.00000 0 -14185466.136 5692806.288 -20399112.498 10 0 60438 71100.00000 0 -12893721.645 3429698.084 -21720181.777 10 0 60438 72000.00000 0 -11717769.250 952331.634 -22618576.679 10 0 60438 72900.00000 0 -10699997.340 -1683671.199 -23076864.054 10 0 60438 73800.00000 0 -9872602.521 -4415390.434 -23086188.541 10 0 60438 74700.00000 0 -9256297.533 -7174992.234 -22646440.365 10 0 60438 75600.00000 0 -8859521.766 -9892323.348 -21766251.907 10 0 60438 76500.00000 0 -8678186.671 -12497607.965 -20462823.530 10 0 60438 77400.00000 0 -8695965.704 -14924134.904 -18761582.449 10 0 60438 78300.00000 0 -8885115.425 -17110823.678 -16695681.631 10 0 60438 79200.00000 0 -9207792.035 -19004563.087 -14305348.760 10 0 60438 80100.00000 0 -9617806.699 -20562225.521 -11637098.206 10 0 60438 81000.00000 0 -10062744.668 -21752273.872 -8742821.609 10 0 60438 81900.00000 0 -10486357.840 -22555895.027 -5678775.004 10 0 60438 82800.00000 0 -10831129.067 -22967613.794 -2504482.550 10 0 60438 83700.00000 0 -11040899.309 -22995362.936 718421.560 10 0 60438 84600.00000 0 -11063446.304 -22660007.802 3927390.187 10 0 60438 85500.00000 0 -10852905.592 -21994346.862 7060175.864 10 0 60439 0.00000 0 -10371931.609 -21041631.403 10056035.021 10 0 60439 900.00000 0 -9593507.308 -19853666.986 12856902.144 10 0 60439 1800.00000 0 -8502326.640 -18488578.346 15408507.356 10 0 60439 2700.00000 0 -7095690.680 -17008330.171 17661421.649 10 0 60439 3600.00000 0 -5383879.913 -15476108.888 19572006.168 10 0 60439 4500.00000 0 -3389986.226 -13953674.326 21103249.641 10 0 60439 5400.00000 0 -1149210.720 -12498791.545 22225478.377 10 0 60439 6300.00000 0 1292344.584 -11162849.402 22916926.003 10 0 60439 7200.00000 0 3879342.254 -9988764.488 23164152.590 10 0 60439 8100.00000 0 6549264.544 -9009257.102 22962305.569 10 0 60439 9000.00000 0 9234774.460 -8245570.533 22315217.526 10 0 60439 9900.00000 0 11866286.429 -7706686.599 21235338.772 10 0 60439 10800.00000 0 14374641.459 -7389069.962 19743505.417 10 0 60439 11700.00000 0 16693777.043 -7276951.875 17868546.544 10 0 60439 12600.00000 0 18763281.833 -7343141.661 15646736.977 10 0 60439 13500.00000 0 20530729.415 -7550332.232 13121105.052 10 0 60439 14400.00000 0 21953694.247 -7852845.121 10340607.608 10 0 60439 15300.00000 0 23001365.435 -8198741.930 7359187.210 10 0 60439 16200.00000 0 23655690.602 -8532213.226 4234729.176 10 0 60439 17100.00000 0 23912001.371 -8796143.911 1027938.254 10 0 60439 18000.00000 0 23779093.687 -8934746.106 -2198843.170 10 0 60439 18900.00000 0 23278759.137 -8896147.326 -5382852.011 10 0 60439 19800.00000 0 22444786.681 -8634823.232 -8462132.219 10 0 60439 20700.00000 0 21321476.757 -8113770.558 -11376748.489 10 0 60439 21600.00000 0 19961730.528 -7306326.671 -14069961.365 10 0 60439 22500.00000 0 18424795.175 -6197557.175 -16489339.891 10 0 60439 23400.00000 0 16773760.766 -4785151.297 -18587789.266 10 0 60439 24300.00000 0 15072914.742 -3079785.771 -20324472.902 10 0 60439 25200.00000 0 13385065.880 -1104940.544 -21665610.524 10 0 60439 26100.00000 0 11768950.762 1103827.105 -22585136.653 10 0 60439 27000.00000 0 10276831.903 3500120.504 -23065206.760 10 0 60439 27900.00000 0 8952388.328 6028402.466 -23096541.530 10 0 60439 28800.00000 0 7828986.746 8626084.580 -22678602.925 10 0 60439 29700.00000 0 6928405.122 11225920.071 -21819599.090 10 0 60439 30600.00000 0 6260061.198 13758600.704 -20536318.426 10 0 60439 31500.00000 0 5820777.102 16155449.677 -18853796.472 10 0 60439 32400.00000 0 5595088.517 18351098.562 -16804822.432 10 0 60439 33300.00000 0 5556083.917 20286037.002 -14429295.216 10 0 60439 34200.00000 0 5666737.082 21908929.270 -11773441.812 10 0 60439 35100.00000 0 5881675.364 23178601.588 -8888913.457 10 0 60439 36000.00000 0 6149307.888 24065617.970 -5831777.434 10 0 60439 36900.00000 0 6414222.792 24553379.574 -2661424.444 10 0 60439 37800.00000 0 6619751.436 24638702.643 560586.927 10 0 60439 38700.00000 0 6710590.600 24331851.969 3771725.899 10 0 60439 39600.00000 0 6635371.459 23656029.623 6909701.873 10 0 60439 40500.00000 0 6349066.568 22646341.490 9913669.871 10 0 60439 41400.00000 0 5815133.102 21348285.878 12725405.715 10 0 60439 42300.00000 0 5007301.860 19815828.242 15290428.414 10 0 60439 43200.00000 0 3910936.534 18109143.086 17559048.497 10 0 60439 44100.00000 0 2523905.779 16292117.616 19487322.687 10 0 60439 45000.00000 0 856930.979 14429721.298 21037897.247 10 0 60439 45900.00000 0 -1066605.651 12585350.629 22180724.579 10 0 60439 46800.00000 0 -3211385.707 10818259.143 22893640.102 10 0 60439 47700.00000 0 -5531383.095 9181178.891 23162788.958 10 0 60439 48600.00000 0 -7971546.788 7718231.541 22982894.790 10 0 60439 49500.00000 0 -10469869.595 6463215.169 22357365.569 10 0 60439 50400.00000 0 -12959758.636 5438337.393 21298234.221 10 0 60439 51300.00000 0 -15372610.683 4653447.042 19825934.660 10 0 60439 52200.00000 0 -17640486.788 4105796.067 17968916.674 10 0 60439 53100.00000 0 -19698776.019 3780341.506 15763106.055 10 0 60439 54000.00000 0 -21488738.179 3650574.849 13251219.192 10 0 60439 54900.00000 0 -22959819.814 3679844.130 10481944.245 10 0 60439 55800.00000 0 -24071646.698 3823113.292 7509003.755 10 0 60439 56700.00000 0 -24795609.069 4029084.727 4390116.141 10 0 60439 57600.00000 0 -25115972.542 4242595.267 1185875.817 10 0 60439 58500.00000 0 -25030467.288 4407183.942 -2041426.291 10 0 60439 59400.00000 0 -24550329.986 4467722.155 -5229018.548 10 0 60439 60300.00000 0 -23699796.117 4372993.873 -8314876.429 10 0 60439 61200.00000 0 -22515063.540 4078115.300 -11238937.534 10 0 60439 62100.00000 0 -21042770.806 3546690.087 -13944279.168 10 0 60439 63000.00000 0 -19338054.345 2752607.280 -16378234.589 10 0 60439 63900.00000 0 -17462266.594 1681404.436 -18493425.320 10 0 60439 64800.00000 0 -15480451.480 331136.775 -20248688.774 10 0 60439 65700.00000 0 -13458683.804 -1287285.629 -21609882.781 10 0 60439 66600.00000 0 -11461384.661 -3150308.031 -22550551.170 10 0 60439 67500.00000 0 -9548725.742 -5222480.733 -23052437.585 10 0 60439 68400.00000 0 -7774231.264 -7457717.710 -23105837.824 10 0 60439 69300.00000 0 -6182677.695 -9801012.001 -22709784.206 10 0 60439 70200.00000 0 -4808378.523 -12190536.566 -21872058.872 10 0 60439 71100.00000 0 -3673924.888 -14560043.127 -20609036.166 10 0 60439 72000.00000 0 -2789433.566 -16841459.033 -18945357.608 10 0 60439 72900.00000 0 -2152332.276 -18967573.935 -16913446.095 10 0 60439 73800.00000 0 -1747689.649 -20874704.292 -14552869.092 10 0 60439 74700.00000 0 -1549074.274 -22505224.708 -11909563.471 10 0 60439 75600.00000 0 -1519904.967 -23809860.646 -9034937.334 10 0 60439 76500.00000 0 -1615233.835 -24749647.183 -5984866.527 10 0 60439 77400.00000 0 -1783885.535 -25297472.384 -2818605.702 10 0 60439 78300.00000 0 -1970861.278 -25439141.462 402364.643 10 0 60439 79200.00000 0 -2119905.137 -25173917.959 3615532.440 10 0 60439 80100.00000 0 -2176123.583 -24514520.139 6758566.189 10 0 60439 81000.00000 0 -2088547.156 -23486573.656 9770521.343 10 0 60439 81900.00000 0 -1812525.872 -22127544.182 12593017.560 10 0 60439 82800.00000 0 -1311857.152 -20485195.333 15171364.249 10 0 60439 83700.00000 0 -560556.527 -18615636.809 17455613.062 10 0 60439 84600.00000 0 455803.597 -16581044.423 19401517.631 10 0 60439 85500.00000 0 1739243.681 -14447147.027 20971382.788 10 0 60440 0.00000 0 3279051.349 -12280584.837 22134787.640 10 0 60440 900.00000 0 5051995.647 -10146247.256 22869169.954 10 0 60440 1800.00000 0 7023071.323 -8104702.991 23160259.808 10 0 60440 2700.00000 0 9146746.233 -6209824.414 23002356.704 10 0 60440 3600.00000 0 11368659.543 -4506706.789 22398443.324 10 0 60440 4500.00000 0 13627702.470 -3029966.803 21360134.247 10 0 60440 5400.00000 0 15858396.536 -1802490.549 19907459.968 10 0 60440 6300.00000 0 17993471.877 -834682.483 18068489.530 10 0 60440 7200.00000 0 19966539.431 -124246.318 15878798.010 10 0 60440 8100.00000 0 21714746.523 343493.276 13380787.951 10 0 60440 9000.00000 0 23181305.448 594741.707 10622876.711 10 0 60440 9900.00000 0 24317789.355 665893.909 7658564.462 10 0 60440 10800.00000 0 25086098.935 601758.703 4545400.171 10 0 60440 11700.00000 0 25460016.777 453423.075 1343865.181 10 0 60440 12600.00000 0 25426283.153 275846.983 -1883803.880 10 0 60440 13500.00000 0 24985147.073 125291.006 -5074829.696 10 0 60440 14400.00000 0 24150368.440 56686.643 -8167122.062 10 0 60440 15300.00000 0 22948670.427 121061.746 -11100494.096 10 0 60440 16200.00000 0 21418664.556 363131.483 -13817842.219 10 0 60440 17100.00000 0 19609293.433 819158.291 -16266265.961 10 0 60440 18000.00000 0 17577856.568 1515172.828 -18398104.893 10 0 60440 18900.00000 0 15387702.446 2465632.587 -20171871.854 10 0 60440 19800.00000 0 13105683.995 3672576.129 -21553063.915 10 0 60440 20700.00000 0 10799484.484 5125309.737 -22514835.094 10 0 60440 21600.00000 0 8534926.102 6800640.677 -23038517.847 10 0 60440 22500.00000 0 6373373.852 8663648.064 -23113983.458 10 0 60440 23400.00000 0 4369343.127 10668959.557 -22739834.716 10 0 60440 24300.00000 0 2568410.404 12762480.819 -21923427.570 10 0 60440 25200.00000 0 1005513.459 14883505.644 -20680721.806 10 0 60440 26100.00000 0 -296289.018 16967118.616 -19035964.075 10 0 60440 27000.00000 0 -1326548.052 18946789.942 -17021209.764 10 0 60440 27900.00000 0 -2087616.389 20757054.047 -14675693.340 10 0 60440 28800.00000 0 -2594295.664 22336159.958 -12045059.653 10 0 60440 29700.00000 0 -2872955.458 23628582.746 -9180471.427 10 0 60440 30600.00000 0 -2960163.108 24587291.118 -6137610.525 10 0 60440 31500.00000 0 -2900883.649 25175676.485 -2975592.736 10 0 60440 32400.00000 0 -2746327.255 25369063.117 244182.545 10 0 60440 33300.00000 0 -2551536.198 25155736.629 3459225.101 10 0 60440 34200.00000 0 -2372814.129 24537448.248 6607165.729 10 0 60440 35100.00000 0 -2265106.887 23529374.385 9626963.465 10 0 60440 36000.00000 0 -2279445.763 22159533.737 12460084.852 10 0 60440 36900.00000 0 -2460561.319 20467686.830 15051632.569 10 0 60440 37800.00000 0 -2844768.409 18503764.258 17351402.028 10 0 60440 38700.00000 0 -3458211.479 16325889.354 19314846.149 10 0 60440 39600.00000 0 -4315544.076 13998077.521 20903930.400 10 0 60440 40500.00000 0 -5419098.275 11587707.594 22087862.494 10 0 60440 41400.00000 0 -6758579.407 9162869.634 22843683.481 10 0 60440 42300.00000 0 -8311299.693 6789698.472 23156709.546 10 0 60440 43200.00000 0 -10042942.165 4529802.629 23020816.499 10 0 60440 44100.00000 0 -11908824.407 2437894.190 22438561.651 10 0 60440 45000.00000 0 -13855610.935 559716.984 21421140.588 10 0 60440 45900.00000 0 -15823404.466 -1069641.875 19988179.146 10 0 60440 46800.00000 0 -17748130.430 -2426987.672 18167363.792 10 0 60440 47700.00000 0 -19564116.570 -3501750.132 15993916.496 10 0 60440 48600.00000 0 -21206760.960 -4296181.689 13509923.067 10 0 60440 49500.00000 0 -22615177.540 -4825013.956 10763526.763 10 0 60440 50400.00000 0 -23734708.574 -5114586.936 7808001.793 10 0 60440 51300.00000 0 -24519198.455 -5201487.685 4700723.891 10 0 60440 52200.00000 0 -24932932.741 -5130755.960 1502057.498 10 0 60440 53100.00000 0 -24952159.942 -4953732.871 -1725818.865 10 0 60440 54000.00000 0 -24566130.901 -4725643.987 -4920125.877 10 0 60440 54900.00000 0 -23777610.792 -4503019.913 -8018711.146 10 0 60440 55800.00000 0 -22602841.073 -4341064.536 -10961266.555 10 0 60440 56700.00000 0 -21070952.051 -4291083.588 -13690510.583 10 0 60440 57600.00000 0 -19222850.078 -4398083.710 -16153311.602 10 0 60440 58500.00000 0 -17109625.789 -4698645.014 -18301729.357 10 0 60440 59400.00000 0 -14790550.083 -5219158.403 -20093953.719 10 0 60440 60300.00000 0 -12330741.953 -5974503.366 -21495122.010 10 0 60440 61200.00000 0 -9798606.045 -6967223.063 -22477998.812 10 0 60440 62100.00000 0 -7263147.315 -8187232.373 -23023505.125 10 0 60440 63000.00000 0 -4791275.047 -9612071.862 -23121086.855 10 0 60440 63900.00000 0 -2445208.702 -11207697.502 -22768915.834 10 0 60440 64800.00000 0 -280093.417 -12929773.335 -21973919.936 10 0 60440 65700.00000 0 1658076.089 -14725413.055 -20751642.135 10 0 60440 66600.00000 0 3334137.583 -16535297.600 -19125931.665 10 0 60440 67500.00000 0 4724980.518 -18296080.015 -17128473.662 10 0 60440 68400.00000 0 5820253.042 -19942976.821 -14798166.699 10 0 60440 69300.00000 0 6622529.034 -21412437.249 -12180360.629 10 0 60440 70200.00000 0 7146930.133 -22644778.419 -9325969.785 10 0 60440 71100.00000 0 7420220.571 -23586676.048 -6290479.052 10 0 60440 72000.00000 0 7479414.738 -24193406.280 -3132862.413 10 0 60440 72900.00000 0 7369957.796 -24430744.759 85564.683 10 0 60440 73800.00000 0 7143557.493 -24276443.572 3302336.582 10 0 60440 74700.00000 0 6855759.781 -23721224.357 6455048.913 10 0 60440 75600.00000 0 6563371.417 -22769246.347 9482566.634 10 0 60440 76500.00000 0 6321838.841 -21438030.044 12326205.267 10 0 60440 77400.00000 0 6182694.189 -19757839.991 14930862.586 10 0 60440 78300.00000 0 6191176.162 -17770552.594 17246079.287 10 0 60440 79200.00000 0 6384125.915 -15528056.191 19227008.754 10 0 60440 80100.00000 0 6788246.359 -13090249.789 20835277.908 10 0 60440 81000.00000 0 7418798.060 -10522723.242 22039723.415 10 0 60440 81900.00000 0 8278786.620 -7894214.490 22816989.862 10 0 60440 82800.00000 0 9358676.055 -5273948.476 23151979.093 10 0 60440 83700.00000 0 10636640.931 -2728966.968 23038142.552 10 0 60440 84600.00000 0 12079347.782 -321558.810 22477611.210 10 0 60440 85500.00000 0 13643234.439 1893104.034 21481160.416 99